This is the latest recevied weather packets stored in our database for station/object KB4KY. If no packets are shown the sender has not sent any weather packets the latest 10 day(s).
| Time | Temp. | Humidity | Pressure | Rain* | Wind** | Luminosity | Snow |
|---|---|---|---|---|---|---|---|
| 1777144122 | 25.56° C | 54% | 1009.4 hPa | 0 mm | - | - | - |
| 1777143819 | 25° C | 56% | 1009.5 hPa | 0 mm | - | - | - |
| 1777143522 | 25° C | 54% | 1009.4 hPa | 0 mm | - | - | - |
| 1777143222 | 25° C | 53% | 1009.4 hPa | 0 mm | - | - | - |
| 1777142918 | 25° C | 54% | 1009.5 hPa | 0 mm | - | - | - |
| 1777142621 | 24.44° C | 55% | 1009.5 hPa | 0 mm | - | - | - |
| 1777142318 | 24.44° C | 55% | 1009.6 hPa | 0 mm | - | - | - |
| 1777142018 | 25° C | 55% | 1009.7 hPa | 0 mm | - | - | - |
| 1777141717 | 24.44° C | 57% | 1009.7 hPa | 0 mm | - | - | - |
| 1777141419 | 24.44° C | 58% | 1009.7 hPa | 0 mm | - | - | - |
| 1777141117 | 24.44° C | 59% | 1009.7 hPa | 0 mm | - | - | - |
| 1777140817 | 23.89° C | 58% | 1009.8 hPa | 0 mm | - | - | - |
| 1777140516 | 23.89° C | 60% | 1009.8 hPa | 0 mm | - | - | - |
| 1777140216 | 23.89° C | 61% | 1009.8 hPa | 0 mm | - | - | - |
| 1777139916 | 23.33° C | 63% | 1009.9 hPa | 0 mm | - | - | - |
| 1777139615 | 23.33° C | 63% | 1009.9 hPa | 0 mm | - | - | - |
| 1777139317 | 23.33° C | 61% | 1010 hPa | 0 mm | - | - | - |
| 1777139015 | 23.33° C | 64% | 1010 hPa | 0 mm | - | - | - |
| 1777138718 | 22.78° C | 62% | 1010.1 hPa | 0 mm | - | - | - |
| 1777138415 | 22.78° C | 65% | 1010.1 hPa | 0 mm | - | - | - |
| 1777138116 | 22.78° C | 65% | 1010 hPa | 0 mm | - | - | - |
| 1777137814 | 22.22° C | 67% | 1010 hPa | 0 mm | - | - | - |
| 1777137513 | 22.22° C | 67% | 1010.1 hPa | 0 mm | - | - | - |
| 1777137213 | 21.67° C | 70% | 1010.2 hPa | 0 mm | - | - | - |
| 1777136913 | 21.11° C | 70% | 1010.3 hPa | 0 mm | - | - | - |
* Rain latest hour (hover to see other rain measurements)
** Current wind speed in m/s (hover to see current wind gust speed)